Rbgn^[z[y[W
メイン
   新天体発見情報
     Comet C/2018 EF9 (Lemmon)
投稿するにはまず登録を

スレッド表示 | 新しいものから 前のトピック | 次のトピック | 下へ
投稿者 スレッド
佐藤裕久
投稿日時: 2018-4-28 18:41
モデレータ
登録日: 2005-6-12
居住地: 日本
投稿: 2505
オンライン
Comet C/2018 EF9 (Lemmon)

3月9日、A. R. GibがMt Lemmonの1.5-m 反射望遠鏡で得たCCD画像から小惑星状天体を発見した。
この天体は、小惑星符号が与えられMPEC 2018-F138に発表されていた。
MPEC 2018-H55のG. V. Williamsの書き込みによると、E. Kramerは、NEOWISE (CBET 4225参照)で得ら
れるその赤外線画像を報告した。4月7.55日-8.14日UTの間、2018 EF9は広がって見えた。
J. Bauer (Maryland大学)の書込みによると、M. Knightと彼は、4月14.19日UT、Arizonaにある4-m 
Discovery Channel Telescope(+ VRフィルタ)で得た観測は、点拡散関数 (PSF)1".66のシーイングで
2".2 (FWHM)の伸びたコマ、p.a.170°におよそ7"伸びたかすかな尾が見えた(ほぼ反太陽方向)。

発見位置は次のとおり、

     2018 UT             R.A. (2000) Decl.       Mag.   Observer
     Mar.  9.29782   13 48 47.77   +41 23 37.9   20.7   Gibbs
           9.30302   13 48 47.70   +41 24 02.9   20.3     "
           9.30823   13 48 47.77   +41 24 29.6   21.0     "
           9.31345   13 48 47.80   +41 24 53.7   21.2     "
           9.38352   13 48 48.06   +41 30 34.2   20.1     "
           9.38472   13 48 48.00   +41 30 39.5            "
           9.38513   13 48 48.01   +41 30 42.0            "
           9.39403   13 48 48.04   +41 31 23.3            "
           9.39484   13 48 48.00   +41 31 26.9   20.9     "
           9.39525   13 48 48.03   +41 31 30.7   20.6     "

楕円軌道要素と位置推算表は次のとおり、

Orbital elements:
    C/2018 EF9 (Lemmon)
Epoch 2018 June 11.0 TT = JDT 2458280.5
T 2018 May 23.08772 TT                                  MPCW
q   1.5570278            (2000.0)            P               Q
z  +0.0009547      Peri.   72.59104     -0.30804919     +0.94264994
 +/-0.0002108      Node   172.58426     -0.42259717     -0.25660882
e   0.9985134      Incl.   84.70671     +0.85235986     +0.21345490
From 98 observations 2018 Mar. 9-Apr. 14, mean residual 0".5.

    C/2018 EF9 (Lemmon)
Epoch 2018 Mar. 23.0 TT = JDT 2458200.5
T 2018 May 23.08522 TT                                  MPCW
q   1.5570341            (2000.0)            P               Q
z  +0.0009565      Peri.   72.58915     -0.30807900     +0.94264124
 +/-0.0002108      Node   172.58470     -0.42258489     -0.25661414
e   0.9985106      Incl.   84.70712     +0.85235517     +0.21348695
From 98 observations 2018 Mar. 9-Apr. 14, mean residual 0".5.

Ephemeris:
    C/2018 EF9 (Lemmon)
Date    TT    R. A. (2000) Decl.     Delta      r     Elong.  Phase   m1    m2
2018 03 21    13 46 35.7 +56 40 30   1.0631  1.7782   119.4    29.2        20.7
...
2018 04 05    13 26 45.8 +72 22 39   1.1765  1.6903   101.6    35.4        20.9
...
2018 04 13    12 59 12.2 +78 17 00   1.2640  1.6512    92.8    37.3        21.1
...
2018 04 19    12 22 28.8 +81 35 10   1.3345  1.6258    86.9    38.1        21.2
2018 04 20    12 14 24.3 +82 02 35   1.3464  1.6220    85.9    38.2        21.2
2018 04 21    12 05 39.5 +82 28 22   1.3583  1.6182    85.0    38.2        21.2
...
2018 04 27    10 57 25.6 +84 27 52   1.4292  1.5978    79.9    38.3        21.3
...
2018 05 05    08 54 39.4 +85 31 49   1.5196  1.5768    74.1    38.0        21.4
...
2018 05 20    06 16 11.5 +84 46 59   1.6645  1.5576    66.0    36.4        21.6

(CBET 4511、MPEC 2018-H55)

スレッド表示 | 新しいものから 前のトピック | 次のトピック | トップ

投稿するにはまず登録を
 
© 1999 Tsutomu Seki.